CLEMENTINE

导读

CLEMENTINE卫星于1999年12月3日08:00由法国发射。该卫星任务聚焦空间环境探测与技术验证,依托法国航天技术设计建造,旨在获取特定轨道区域的空间环境参数,验证新型卫星平台及载荷技术,为后续航天任务积累工程经验,服务于地球观测及空间科学研究领域,推动欧洲航天技术的发展与应用。

基本信息
目录编号:
25978
目录名称:
CLEMENTINE
国际标识:
1999-064B
轨道中心:
EARTH
卫星名称:
CLEMENTINE
卫星全名:
--
卫星状态:
在轨 (已飞行9772 天)
发射日期:
1999-12-03 UTC
国别 :
法国 (FR)
星等 :
--
轨道信息
数据来源 国际轨道数据
星历时间: 2026-09-04T01:31:42+0800
1天前
查看轨道信息
半长轴: 6814.206km
偏心率: 0.0001467
轨道倾角: 98.146°
近地点辐角 200.708°
升交点赤经 350.088°
平近点角 159.411°
近地点: 435.069km
远地点: 437.069km
周期: 93.300分钟
每日圈数: 15.434051
详细信息
使用方式:
暂无
2D轨道图
3D轨道图
轨道高度分析图
轨道倾角分析图
轨道综合分析图
查看轨道综合分析图
交会数据列表
事件ID 空间交会对象 最接近时刻(TCA) 交会距离 交会风险概率(CRP) 交会风险指数(CRI) 操作
CDM_260906-230802-597804-577221
2026-09-06T
23:08:32+0000
2.030 km
极远距离
1.905088E-6 低风险 0.41
CDM_260907-011202-597806-538021
2026-09-07T
01:12:42+0000
2.391 km
极远距离
1.790182E-6 低风险 0.4
CDM_260906-213502-597804-577221
2026-09-06T
21:35:07+0000
2.899 km
极远距离
1.000049E-6 低风险 0.35